Location: Seven Kings
(51.5667°N, 0.1000°E)
Time: 11:29:19
(UTC+00:00)

SeaSat 1 - Pass Details

Date: 29 October 2020
Orbit: 744 x 747 km, 108.0° (Epoch: 24 November)

Event Time Altitude Azimuth Distance (km) Brightness Sun altitude
Exits shadow 19:40:26 61° 242° (WSW) 851 2.8 -28.8°
Maximum altitude 19:40:27 61° 243° (WSW) 851 2.8 -28.8°
Drops below altitude 10° 19:45:21 10° 324° (NW) 2,276 5.5 -29.6°
Sets 19:47:40 0° 328° (NNW) 3,204 6.4 -29.9°
